Location: Beuerbach
(48.1459°N, 10.9174°E)
Time: 10:31:49
(UTC+00:00)

IDEFIX/ARIANE 42P - Pass Details

Date: 23 May 2024
Orbit: 783 x 799 km, 98.5° (Epoch: 15 June)

Event Time Altitude Azimuth Distance (km) Brightness Sun altitude
Rises 01:17:27 0° 13° (NNE) 3,317 7.3 -15.8°
Reaches altitude 10° 01:19:47 10° 13° (NNE) 2,384 6.2 -15.6°
Maximum altitude 01:25:03 81° 287° (WNW) 815 2.6 -15.1°
Enters shadow 01:28:31 22° 202° (SSW) 1,681 3.7 -14.8°
